EJA24 KORF-MUCL

Flight info

Callsign EJA24
Flight time 2h 28m
Altitude 30000
Route SWOPE1 ELLDE Q97 WOPNR Q93 VAULT Q79 MCLAW Y442 FUNDI UM335 ALVEK VARCA4B
Aircraft B737/M-SDE2E3FGHIRWXY/LB1

Departure

Time 2026-05-04 19:08
Airport Norfolk International Airport (KORF)

Arrival

Time 2026-05-04 21:37
Airport Vilo Acuña International Airport (MUCL)
Time Latitude Longitude Altitude Speed Heading
2026-05-04 18:43 36.88750 -76.20079 2 ft 0 kts 47°
2026-05-04 18:56 36.88742 -76.20090 2 ft 3 kts 47°
2026-05-04 18:56 36.88739 -76.20095 2 ft 8 kts 47°
2026-05-04 19:00 36.88743 -76.20091 22 ft 3 kts 35°
2026-05-04 19:00 36.88788 -76.20087 3 ft 9 kts 336°
2026-05-04 19:00 36.88823 -76.20167 2 ft 12 kts 291°
2026-05-04 19:00 36.88848 -76.20266 2 ft 12 kts 289°
2026-05-04 19:01 36.88870 -76.20347 2 ft 10 kts 288°
2026-05-04 19:01 36.88893 -76.20433 5 ft 11 kts 291°
2026-05-04 19:01 36.88930 -76.20515 5 ft 11 kts 305°
2026-05-04 19:01 36.88976 -76.20585 3 ft 10 kts 324°
2026-05-04 19:02 36.89042 -76.20575 3 ft 10 kts 28°
2026-05-04 19:02 36.89100 -76.20530 3 ft 10 kts 32°
2026-05-04 19:02 36.89157 -76.20485 4 ft 9 kts 32°
2026-05-04 19:02 36.89211 -76.20441 6 ft 9 kts 36°
2026-05-04 19:03 36.89265 -76.20391 4 ft 11 kts 37°
2026-05-04 19:03 36.89331 -76.20328 3 ft 13 kts 38°
2026-05-04 19:03 36.89402 -76.20259 3 ft 13 kts 38°
2026-05-04 19:03 36.89472 -76.20192 4 ft 12 kts 38°
2026-05-04 19:04 36.89540 -76.20126 3 ft 12 kts 38°
2026-05-04 19:04 36.89605 -76.20062 3 ft 12 kts 38°
2026-05-04 19:04 36.89681 -76.19990 3 ft 17 kts 38°
2026-05-04 19:04 36.89786 -76.19888 2 ft 20 kts 37°
2026-05-04 19:05 36.89895 -76.19783 2 ft 19 kts 37°
2026-05-04 19:05 36.89999 -76.19680 2 ft 19 kts 39°
2026-05-04 19:05 36.90102 -76.19582 2 ft 18 kts 33°
2026-05-04 19:05 36.90211 -76.19509 2 ft 18 kts 23°
2026-05-04 19:06 36.90311 -76.19426 2 ft 17 kts 38°
2026-05-04 19:06 36.90402 -76.19338 2 ft 16 kts 38°
2026-05-04 19:06 36.90490 -76.19253 1 ft 16 kts 37°
2026-05-04 19:06 36.90575 -76.19172 1 ft 15 kts 37°
2026-05-04 19:07 36.90600 -76.19066 1 ft 14 kts 126°
2026-05-04 19:07 36.90529 -76.18985 -1 ft 14 kts 168°
2026-05-04 19:07 36.90446 -76.19038 1 ft 17 kts 218°
2026-05-04 19:07 36.90098 -76.19373 3 ft 112 kts 218°
2026-05-04 19:08 36.89268 -76.20163 256 ft 178 kts 218°
2026-05-04 19:08 36.88077 -76.21035 925 ft 215 kts 202°
2026-05-04 19:08 36.86613 -76.21692 1698 ft 228 kts 202°
2026-05-04 19:08 36.85119 -76.22381 2505 ft 229 kts 201°
2026-05-04 19:09 36.83577 -76.23032 3062 ft 240 kts 202°
2026-05-04 19:09 36.82011 -76.23812 3554 ft 246 kts 204°
2026-05-04 19:09 36.80412 -76.24641 4029 ft 250 kts 204°
2026-05-04 19:09 36.78801 -76.25480 4513 ft 254 kts 204°
2026-05-04 19:10 36.77157 -76.26338 5047 ft 254 kts 205°
2026-05-04 19:10 36.75529 -76.27177 5546 ft 252 kts 205°
2026-05-04 19:10 36.73894 -76.28016 6053 ft 256 kts 206°
2026-05-04 19:10 36.72239 -76.28864 6560 ft 258 kts 207°
2026-05-04 19:11 36.70570 -76.29715 7048 ft 260 kts 207°
2026-05-04 19:11 36.68894 -76.30570 7544 ft 261 kts 207°
2026-05-04 19:11 36.67197 -76.31435 8028 ft 265 kts 208°
2026-05-04 19:11 36.65480 -76.32309 8538 ft 269 kts 207°
2026-05-04 19:12 36.63731 -76.33196 9057 ft 273 kts 208°
2026-05-04 19:12 36.60084 -76.35054 10140 ft 300 kts 208°
2026-05-04 19:12 36.58098 -76.36067 10645 ft 317 kts 207°
2026-05-04 19:13 36.55999 -76.37135 11155 ft 333 kts 207°
2026-05-04 19:13 36.53804 -76.38246 11672 ft 349 kts 207°
2026-05-04 19:13 36.51513 -76.39404 12196 ft 362 kts 207°
2026-05-04 19:13 36.49131 -76.40606 12725 ft 375 kts 207°
2026-05-04 19:14 36.46714 -76.41824 13254 ft 386 kts 207°
2026-05-04 19:14 36.44156 -76.43113 13784 ft 397 kts 207°
2026-05-04 19:14 36.41601 -76.44398 14263 ft 405 kts 207°
2026-05-04 19:14 36.38986 -76.45711 14729 ft 406 kts 207°
2026-05-04 19:15 36.36359 -76.47028 15218 ft 408 kts 207°
2026-05-04 19:15 36.33725 -76.48348 15707 ft 409 kts 207°
2026-05-04 19:15 36.31081 -76.49675 16210 ft 411 kts 207°
2026-05-04 19:15 36.28426 -76.51007 16716 ft 412 kts 207°
2026-05-04 19:16 36.25758 -76.52346 17245 ft 417 kts 207°
2026-05-04 19:16 36.23050 -76.53706 17785 ft 424 kts 207°
2026-05-04 19:16 36.20303 -76.55085 18307 ft 428 kts 207°
2026-05-04 19:16 36.17535 -76.56470 18784 ft 430 kts 207°
2026-05-04 19:17 36.14755 -76.57859 19256 ft 431 kts 207°
2026-05-04 19:17 36.12874 -76.58798 19586 ft 432 kts 207°
2026-05-04 19:17 36.09170 -76.60647 20225 ft 434 kts 207°
2026-05-04 19:17 36.06369 -76.62045 20724 ft 435 kts 207°
2026-05-04 19:18 36.04510 -76.62972 21056 ft 436 kts 207°
2026-05-04 19:18 36.01687 -76.64380 21567 ft 440 kts 207°
2026-05-04 19:18 35.98845 -76.65797 22066 ft 443 kts 207°
2026-05-04 19:18 35.95981 -76.67222 22596 ft 445 kts 207°
2026-05-04 19:19 35.93130 -76.68719 23129 ft 444 kts 212°
2026-05-04 19:19 35.90511 -76.70693 23672 ft 439 kts 221°
2026-05-04 19:19 35.88171 -76.73091 24130 ft 435 kts 229°
2026-05-04 19:19 35.86135 -76.75824 24603 ft 433 kts 232°
2026-05-04 19:20 35.84135 -76.78597 25070 ft 433 kts 233°
2026-05-04 19:20 35.82133 -76.81379 25552 ft 433 kts 233°
2026-05-04 19:20 35.80126 -76.84157 26043 ft 433 kts 232°
2026-05-04 19:20 35.78118 -76.86921 26545 ft 433 kts 232°
2026-05-04 19:21 35.76109 -76.89674 27039 ft 432 kts 232°
2026-05-04 19:21 35.74102 -76.92413 27553 ft 431 kts 232°
2026-05-04 19:21 35.72098 -76.95142 28076 ft 429 kts 232°
2026-05-04 19:21 35.70095 -76.97865 28613 ft 428 kts 232°
2026-05-04 19:22 35.68100 -77.00574 29158 ft 426 kts 232°
2026-05-04 19:22 35.66111 -77.03272 29712 ft 424 kts 232°
2026-05-04 19:22 35.64135 -77.05952 30079 ft 425 kts 232°
2026-05-04 19:23 35.60172 -77.11320 30066 ft 422 kts 232°
2026-05-04 19:23 35.56230 -77.16651 30072 ft 421 kts 232°
2026-05-04 19:24 35.52299 -77.21962 30071 ft 420 kts 232°
2026-05-04 19:24 35.48355 -77.27279 30054 ft 422 kts 232°
2026-05-04 19:25 35.44421 -77.32576 30055 ft 424 kts 232°
2026-05-04 19:25 35.40443 -77.37924 30065 ft 425 kts 232°
2026-05-04 19:26 35.36419 -77.43323 30066 ft 427 kts 232°
2026-05-04 19:26 35.32436 -77.48659 30068 ft 427 kts 232°
2026-05-04 19:27 35.28398 -77.54060 30065 ft 428 kts 231°
2026-05-04 19:27 35.24408 -77.59387 30059 ft 428 kts 232°
2026-05-04 19:28 35.20382 -77.64756 30070 ft 428 kts 231°
2026-05-04 19:28 35.16348 -77.70127 30060 ft 429 kts 231°
2026-05-04 19:29 35.12310 -77.75493 30051 ft 429 kts 231°
2026-05-04 19:29 35.08268 -77.80858 30073 ft 429 kts 231°
2026-05-04 19:30 35.04216 -77.86227 30063 ft 430 kts 231°
2026-05-04 19:30 35.00162 -77.91590 30065 ft 430 kts 231°
2026-05-04 19:31 34.96106 -77.96948 30067 ft 430 kts 231°
2026-05-04 19:31 34.92042 -78.02307 30066 ft 431 kts 231°
2026-05-04 19:32 34.87968 -78.07672 30062 ft 431 kts 231°
2026-05-04 19:32 34.83891 -78.13031 30075 ft 432 kts 231°
2026-05-04 19:33 34.79797 -78.18405 30071 ft 433 kts 231°
2026-05-04 19:33 34.75697 -78.23778 30072 ft 433 kts 231°
2026-05-04 19:34 34.71594 -78.29147 30058 ft 434 kts 231°
2026-05-04 19:34 34.67486 -78.34514 30052 ft 433 kts 231°
2026-05-04 19:35 34.63377 -78.39874 30079 ft 433 kts 231°
2026-05-04 19:35 34.59265 -78.45230 30080 ft 434 kts 231°
2026-05-04 19:36 34.55149 -78.50582 30081 ft 434 kts 231°
2026-05-04 19:36 34.51029 -78.55933 30084 ft 434 kts 231°
2026-05-04 19:37 34.46909 -78.61275 30084 ft 434 kts 231°
2026-05-04 19:37 34.42814 -78.66577 30090 ft 433 kts 231°
2026-05-04 19:38 34.38358 -78.71539 30097 ft 441 kts 219°
2026-05-04 19:38 34.33280 -78.75701 30077 ft 442 kts 219°
2026-05-04 19:39 34.28198 -78.79887 30076 ft 442 kts 219°
2026-05-04 19:39 34.23140 -78.84101 30081 ft 442 kts 219°
2026-05-04 19:40 34.18078 -78.88315 30084 ft 441 kts 219°
2026-05-04 19:40 34.13031 -78.92514 30092 ft 441 kts 219°
2026-05-04 19:41 34.07985 -78.96710 30094 ft 441 kts 219°
2026-05-04 19:41 34.02933 -79.00906 30097 ft 441 kts 219°
2026-05-04 19:42 33.97882 -79.05094 30085 ft 441 kts 219°
2026-05-04 19:42 33.92832 -79.09276 30101 ft 441 kts 219°
2026-05-04 19:43 33.87774 -79.13458 30095 ft 441 kts 219°
2026-05-04 19:43 33.82718 -79.17632 30098 ft 441 kts 219°
2026-05-04 19:44 33.77649 -79.21811 30097 ft 442 kts 219°
2026-05-04 19:44 33.72582 -79.25985 30099 ft 441 kts 219°
2026-05-04 19:45 33.67519 -79.30147 30100 ft 441 kts 219°
2026-05-04 19:45 33.62497 -79.34372 30105 ft 441 kts 220°
2026-05-04 19:46 33.57503 -79.38633 30113 ft 441 kts 220°
2026-05-04 19:46 33.52506 -79.42884 30112 ft 441 kts 220°
2026-05-04 19:47 33.47499 -79.47127 30104 ft 440 kts 220°
2026-05-04 19:47 33.42489 -79.51361 30110 ft 441 kts 220°
2026-05-04 19:48 33.37472 -79.55595 30113 ft 441 kts 220°
2026-05-04 19:48 33.32459 -79.59820 30109 ft 441 kts 220°
2026-05-04 19:49 33.27446 -79.64038 30107 ft 441 kts 220°
2026-05-04 19:49 33.22426 -79.68256 30097 ft 441 kts 220°
2026-05-04 19:50 33.17408 -79.72467 30098 ft 440 kts 220°
2026-05-04 19:50 33.12432 -79.76636 30093 ft 440 kts 220°
2026-05-04 19:51 33.07415 -79.80835 30090 ft 440 kts 220°
2026-05-04 19:51 33.02397 -79.85028 30117 ft 441 kts 220°
2026-05-04 19:52 32.97375 -79.89218 30118 ft 441 kts 220°
2026-05-04 19:52 32.92347 -79.93407 30123 ft 441 kts 220°
2026-05-04 19:53 32.87323 -79.97587 30118 ft 441 kts 220°
2026-05-04 19:53 32.82293 -80.01766 30120 ft 441 kts 220°
2026-05-04 19:54 32.77254 -80.05948 30135 ft 441 kts 220°
2026-05-04 19:54 32.72223 -80.10115 30125 ft 440 kts 220°
2026-05-04 19:55 32.67202 -80.14270 30127 ft 440 kts 220°
2026-05-04 19:55 32.62183 -80.18418 30119 ft 440 kts 220°
2026-05-04 19:56 32.57158 -80.22566 30114 ft 440 kts 220°
2026-05-04 19:56 32.52122 -80.26706 30110 ft 441 kts 219°
2026-05-04 19:57 32.46763 -80.30327 30100 ft 445 kts 213°
2026-05-04 19:57 32.41309 -80.33691 30105 ft 445 kts 213°
2026-05-04 19:58 32.35823 -80.37093 30109 ft 445 kts 213°
2026-05-04 19:58 32.30358 -80.40523 30110 ft 445 kts 214°
2026-05-04 19:59 32.24898 -80.43965 30081 ft 445 kts 214°
2026-05-04 19:59 32.19447 -80.47401 30099 ft 444 kts 214°
2026-05-04 20:00 32.13991 -80.50833 30102 ft 444 kts 214°
2026-05-04 20:00 32.08545 -80.54254 30101 ft 444 kts 213°
2026-05-04 20:01 32.03087 -80.57678 30099 ft 444 kts 213°
2026-05-04 20:01 31.97623 -80.61100 30084 ft 444 kts 214°
2026-05-04 20:02 31.92166 -80.64514 30098 ft 445 kts 214°
2026-05-04 20:02 31.86697 -80.67931 30093 ft 445 kts 214°
2026-05-04 20:03 31.81270 -80.71317 30096 ft 445 kts 214°
2026-05-04 20:03 31.75797 -80.74726 30096 ft 445 kts 214°
2026-05-04 20:04 31.70329 -80.78127 30087 ft 444 kts 214°
2026-05-04 20:04 31.64872 -80.81518 30090 ft 443 kts 214°
2026-05-04 20:05 31.59422 -80.84900 30093 ft 443 kts 214°
2026-05-04 20:05 31.53971 -80.88279 30093 ft 443 kts 214°
2026-05-04 20:06 31.49444 -80.91081 30091 ft 443 kts 214°
2026-05-04 20:06 31.43996 -80.94450 30085 ft 443 kts 214°
2026-05-04 20:07 31.38544 -80.97816 30094 ft 442 kts 214°
2026-05-04 20:07 31.33096 -81.01176 30096 ft 443 kts 214°
2026-05-04 20:08 31.27598 -81.04433 30083 ft 448 kts 208°
2026-05-04 20:08 31.21456 -81.06221 30095 ft 464 kts 193°
2026-05-04 20:09 31.14938 -81.06439 30098 ft 470 kts 188°
2026-05-04 20:09 31.08386 -81.06488 30098 ft 471 kts 188°
2026-05-04 20:10 31.01839 -81.06585 30094 ft 471 kts 188°
2026-05-04 20:10 30.95287 -81.06717 30102 ft 471 kts 189°
2026-05-04 20:11 30.88726 -81.06858 30095 ft 471 kts 189°
2026-05-04 20:11 30.82164 -81.06996 30100 ft 472 kts 189°
2026-05-04 20:12 30.75588 -81.07133 30099 ft 473 kts 189°
2026-05-04 20:12 30.69007 -81.07269 30100 ft 473 kts 189°
2026-05-04 20:13 30.62427 -81.07406 30076 ft 473 kts 189°
2026-05-04 20:13 30.55875 -81.07724 30093 ft 471 kts 191°
2026-05-04 20:14 30.49329 -81.08163 30096 ft 471 kts 191°
2026-05-04 20:14 30.42780 -81.08586 30101 ft 471 kts 191°
2026-05-04 20:15 30.36231 -81.08983 30100 ft 472 kts 191°
2026-05-04 20:15 30.29713 -81.09368 30096 ft 472 kts 191°
2026-05-04 20:16 30.23113 -81.09759 30091 ft 472 kts 191°
2026-05-04 20:16 30.16560 -81.10147 30097 ft 472 kts 191°
2026-05-04 20:17 30.09999 -81.10535 30106 ft 472 kts 191°
2026-05-04 20:17 30.03456 -81.10922 30097 ft 471 kts 190°
2026-05-04 20:18 29.96917 -81.11308 30106 ft 470 kts 190°
2026-05-04 20:18 29.90424 -81.11692 30104 ft 470 kts 190°
2026-05-04 20:19 29.83887 -81.12077 30107 ft 470 kts 190°
2026-05-04 20:19 29.77338 -81.12337 30102 ft 472 kts 188°
2026-05-04 20:20 29.70765 -81.12327 30103 ft 473 kts 187°
2026-05-04 20:20 29.64194 -81.12341 30106 ft 472 kts 188°
2026-05-04 20:21 29.57623 -81.12397 30104 ft 472 kts 188°
2026-05-04 20:21 29.47817 -81.12724 30098 ft 469 kts 189°
2026-05-04 20:22 29.41283 -81.12985 30103 ft 470 kts 189°
2026-05-04 20:22 29.34751 -81.13220 30121 ft 470 kts 189°
2026-05-04 20:23 29.28159 -81.12625 30124 ft 486 kts 174°
2026-05-04 20:23 29.21674 -81.10043 30076 ft 496 kts 165°
2026-05-04 20:24 29.15268 -81.07094 30088 ft 497 kts 165°
2026-05-04 20:24 29.08840 -81.04193 30102 ft 496 kts 166°
2026-05-04 20:25 29.02400 -81.01350 30102 ft 496 kts 166°
2026-05-04 20:25 28.95947 -80.98520 30101 ft 497 kts 166°
2026-05-04 20:26 28.89501 -80.95693 30093 ft 497 kts 166°
2026-05-04 20:26 28.83048 -80.92863 30095 ft 497 kts 166°
2026-05-04 20:27 28.76630 -80.90051 30055 ft 497 kts 166°
2026-05-04 20:27 28.70173 -80.87226 30071 ft 497 kts 166°
2026-05-04 20:28 28.63689 -80.84560 30055 ft 494 kts 169°
2026-05-04 20:28 28.57166 -80.82117 30087 ft 493 kts 169°
2026-05-04 20:29 28.50643 -80.79675 30092 ft 493 kts 169°
2026-05-04 20:29 28.44138 -80.77202 30092 ft 493 kts 169°
2026-05-04 20:30 28.37630 -80.74712 30089 ft 493 kts 169°
2026-05-04 20:30 28.31125 -80.72226 30078 ft 493 kts 168°
2026-05-04 20:31 28.24622 -80.69746 30081 ft 493 kts 168°
2026-05-04 20:31 28.18102 -80.67264 30079 ft 495 kts 168°
2026-05-04 20:32 28.11567 -80.64780 30060 ft 496 kts 168°
2026-05-04 20:32 28.05033 -80.62297 30059 ft 495 kts 168°
2026-05-04 20:33 27.98508 -80.59822 30055 ft 495 kts 168°
2026-05-04 20:33 27.91976 -80.57348 30071 ft 495 kts 168°
2026-05-04 20:34 27.85440 -80.54875 30075 ft 496 kts 168°
2026-05-04 20:34 27.78889 -80.52399 30057 ft 496 kts 168°
2026-05-04 20:35 27.72265 -80.50639 30063 ft 481 kts 183°
2026-05-04 20:35 27.65769 -80.50942 30085 ft 466 kts 195°
2026-05-04 20:36 27.59347 -80.51908 30072 ft 466 kts 195°
2026-05-04 20:36 27.52920 -80.52852 30059 ft 466 kts 195°
2026-05-04 20:37 27.46483 -80.53760 30056 ft 466 kts 195°
2026-05-04 20:37 27.39987 -80.54659 30061 ft 467 kts 195°
2026-05-04 20:38 27.33535 -80.55549 30050 ft 467 kts 195°
2026-05-04 20:38 27.27080 -80.56440 30043 ft 467 kts 195°
2026-05-04 20:39 27.20626 -80.57330 30043 ft 468 kts 195°
2026-05-04 20:39 27.14167 -80.58220 30017 ft 468 kts 195°
2026-05-04 20:40 27.07750 -80.59103 30042 ft 467 kts 195°
2026-05-04 20:40 27.01297 -80.59990 30042 ft 467 kts 195°
2026-05-04 20:41 26.94839 -80.60877 30039 ft 467 kts 194°
2026-05-04 20:41 26.88382 -80.61763 30035 ft 467 kts 194°
2026-05-04 20:42 26.81935 -80.62647 30029 ft 467 kts 194°
2026-05-04 20:42 26.75489 -80.63529 30038 ft 467 kts 194°
2026-05-04 20:43 26.69036 -80.64411 30030 ft 467 kts 194°
2026-05-04 20:43 26.62588 -80.65292 30030 ft 467 kts 194°
2026-05-04 20:44 26.56139 -80.66172 29999 ft 467 kts 194°
2026-05-04 20:44 26.49687 -80.67050 30023 ft 466 kts 194°
2026-05-04 20:45 26.43243 -80.67928 30031 ft 466 kts 194°
2026-05-04 20:45 26.36800 -80.68804 30028 ft 467 kts 194°
2026-05-04 20:46 26.30354 -80.69680 30032 ft 467 kts 194°
2026-05-04 20:46 26.23892 -80.70556 30008 ft 468 kts 194°
2026-05-04 20:47 26.17434 -80.71431 30021 ft 468 kts 194°
2026-05-04 20:47 26.10971 -80.72306 30025 ft 468 kts 194°
2026-05-04 20:48 26.04496 -80.73181 30024 ft 469 kts 194°
2026-05-04 20:48 25.98017 -80.74056 30021 ft 469 kts 194°
2026-05-04 20:49 25.91540 -80.74930 30020 ft 469 kts 194°
2026-05-04 20:49 25.85059 -80.75803 30027 ft 469 kts 194°
2026-05-04 20:50 25.78575 -80.76680 30018 ft 469 kts 194°
2026-05-04 20:50 25.72222 -80.78032 30015 ft 464 kts 199°
2026-05-04 20:51 25.66993 -80.79365 30002 ft 463 kts 200°
2026-05-04 20:51 25.60703 -80.80941 29999 ft 464 kts 199°
2026-05-04 20:52 25.54391 -80.82470 30008 ft 465 kts 199°
2026-05-04 20:52 25.48048 -80.83986 29996 ft 466 kts 199°
2026-05-04 20:53 25.41715 -80.85498 29996 ft 465 kts 199°
2026-05-04 20:53 25.35402 -80.87007 29964 ft 464 kts 199°
2026-05-04 20:54 25.29090 -80.88515 29989 ft 464 kts 199°
2026-05-04 20:54 25.22778 -80.90013 29997 ft 464 kts 199°
2026-05-04 20:55 25.16462 -80.91502 29992 ft 464 kts 199°
2026-05-04 20:55 25.10142 -80.92991 29990 ft 465 kts 199°
2026-05-04 20:56 25.03813 -80.94481 29961 ft 465 kts 199°
2026-05-04 20:56 24.97481 -80.95972 29985 ft 465 kts 199°
2026-05-04 20:57 24.91141 -80.97463 29989 ft 466 kts 199°
2026-05-04 20:57 24.84791 -80.98955 29987 ft 467 kts 199°
2026-05-04 20:58 24.78469 -81.00438 29991 ft 468 kts 199°
2026-05-04 20:58 24.71938 -81.01241 29989 ft 478 kts 188°
2026-05-04 20:59 24.65281 -81.01379 29986 ft 478 kts 188°
2026-05-04 20:59 24.58647 -81.01600 30003 ft 477 kts 189°
2026-05-04 21:00 24.52003 -81.01779 30003 ft 479 kts 187°
2026-05-04 21:00 24.45324 -81.01674 30003 ft 480 kts 186°
2026-05-04 21:01 24.38641 -81.01554 30001 ft 480 kts 186°
2026-05-04 21:01 24.31968 -81.01478 29996 ft 479 kts 186°
2026-05-04 21:02 24.25305 -81.01421 29998 ft 479 kts 187°
2026-05-04 21:02 24.18631 -81.01365 29991 ft 479 kts 186°
2026-05-04 21:03 24.11957 -81.01306 29961 ft 479 kts 186°
2026-05-04 21:03 24.05300 -81.01247 29985 ft 478 kts 186°
2026-05-04 21:04 23.98649 -81.01178 29988 ft 479 kts 186°
2026-05-04 21:04 23.91980 -81.00921 29987 ft 480 kts 184°
2026-05-04 21:05 23.85304 -81.00592 29851 ft 482 kts 184°
2026-05-04 21:05 23.81953 -81.00434 29464 ft 482 kts 184°
2026-05-04 21:05 23.78654 -81.00285 29051 ft 479 kts 184°
2026-05-04 21:06 23.75357 -81.00136 28682 ft 469 kts 184°
2026-05-04 21:06 23.72122 -80.99993 28321 ft 462 kts 184°
2026-05-04 21:06 23.68914 -80.99856 27963 ft 461 kts 184°
2026-05-04 21:06 23.65711 -80.99722 27626 ft 460 kts 184°
2026-05-04 21:07 23.62522 -80.99589 27272 ft 459 kts 184°
2026-05-04 21:07 23.59333 -80.99454 26930 ft 457 kts 184°
2026-05-04 21:07 23.56164 -80.99320 26601 ft 456 kts 184°
2026-05-04 21:07 23.52991 -80.99185 26259 ft 455 kts 184°
2026-05-04 21:08 23.49836 -80.99050 25926 ft 453 kts 184°
2026-05-04 21:08 23.46684 -80.98916 25580 ft 452 kts 184°
2026-05-04 21:08 23.43544 -80.98782 25254 ft 451 kts 184°
2026-05-04 21:08 23.40423 -80.98649 24936 ft 450 kts 184°
2026-05-04 21:09 23.37300 -80.98516 24621 ft 448 kts 184°
2026-05-04 21:09 23.34187 -80.98384 24309 ft 447 kts 183°
2026-05-04 21:09 23.31090 -80.98252 23995 ft 445 kts 183°
2026-05-04 21:09 23.27996 -80.98120 23699 ft 443 kts 183°
2026-05-04 21:10 23.24916 -80.97992 23354 ft 441 kts 183°
2026-05-04 21:10 23.21861 -80.97868 22991 ft 439 kts 183°
2026-05-04 21:10 23.18819 -80.97746 22641 ft 436 kts 183°
2026-05-04 21:10 23.15797 -80.97624 22265 ft 432 kts 182°
2026-05-04 21:11 23.12802 -80.97494 21954 ft 431 kts 181°
2026-05-04 21:11 23.09805 -80.97356 21612 ft 429 kts 182°
2026-05-04 21:11 23.06828 -80.97265 21263 ft 425 kts 184°
2026-05-04 21:11 23.03896 -80.97198 20890 ft 419 kts 183°
2026-05-04 21:12 23.01051 -80.97395 20527 ft 403 kts 198°
2026-05-04 21:12 22.98463 -80.98380 20229 ft 387 kts 205°
2026-05-04 21:12 22.95983 -80.99408 19886 ft 376 kts 205°
2026-05-04 21:12 22.93569 -81.00402 19661 ft 367 kts 205°
2026-05-04 21:13 22.91223 -81.01360 19433 ft 363 kts 205°
2026-05-04 21:13 22.88862 -81.02319 19210 ft 363 kts 204°
2026-05-04 21:13 22.86498 -81.03272 18985 ft 362 kts 204°
2026-05-04 21:13 22.84140 -81.04219 18744 ft 361 kts 204°
2026-05-04 21:14 22.81782 -81.05163 18524 ft 362 kts 204°
2026-05-04 21:14 22.79418 -81.06107 18307 ft 362 kts 204°
2026-05-04 21:14 22.77057 -81.07049 18055 ft 362 kts 204°
2026-05-04 21:14 22.74689 -81.07992 17799 ft 362 kts 204°
2026-05-04 21:15 22.72329 -81.08931 17547 ft 362 kts 204°
2026-05-04 21:15 22.69962 -81.09873 17294 ft 361 kts 204°
2026-05-04 21:15 22.67607 -81.10810 17042 ft 361 kts 204°
2026-05-04 21:15 22.65255 -81.11745 16802 ft 360 kts 204°
2026-05-04 21:16 22.62909 -81.12677 16551 ft 358 kts 204°
2026-05-04 21:16 22.60574 -81.13604 16303 ft 357 kts 204°
2026-05-04 21:16 22.58249 -81.14527 16058 ft 355 kts 204°
2026-05-04 21:16 22.55934 -81.15447 15817 ft 353 kts 203°
2026-05-04 21:17 22.53633 -81.16360 15573 ft 352 kts 203°
2026-05-04 21:17 22.51343 -81.17268 15337 ft 350 kts 203°
2026-05-04 21:17 22.49056 -81.18176 15100 ft 349 kts 203°
2026-05-04 21:17 22.46783 -81.19077 14864 ft 348 kts 203°
2026-05-04 21:18 22.44508 -81.19979 14634 ft 347 kts 203°
2026-05-04 21:18 22.42249 -81.20874 14406 ft 346 kts 203°
2026-05-04 21:18 22.39998 -81.21766 14177 ft 344 kts 203°
2026-05-04 21:18 22.37778 -81.22643 13941 ft 334 kts 203°
2026-05-04 21:19 22.35634 -81.23490 13692 ft 323 kts 203°
2026-05-04 21:19 22.33548 -81.24314 13434 ft 316 kts 203°
2026-05-04 21:19 22.31493 -81.25128 13183 ft 314 kts 203°
2026-05-04 21:19 22.29470 -81.25929 12937 ft 313 kts 203°
2026-05-04 21:20 22.27428 -81.26737 12691 ft 312 kts 203°
2026-05-04 21:20 22.25389 -81.27544 12449 ft 312 kts 203°
2026-05-04 21:20 22.23326 -81.28359 12195 ft 312 kts 203°
2026-05-04 21:20 22.21290 -81.29165 11939 ft 311 kts 202°
2026-05-04 21:21 22.19280 -81.29958 11708 ft 311 kts 202°
2026-05-04 21:21 22.17254 -81.30757 11457 ft 306 kts 202°
2026-05-04 21:21 22.15285 -81.31533 11220 ft 298 kts 202°
2026-05-04 21:21 22.13362 -81.32291 10976 ft 290 kts 202°
2026-05-04 21:22 22.11496 -81.33026 10779 ft 283 kts 202°
2026-05-04 21:22 22.09642 -81.33758 10540 ft 285 kts 202°
2026-05-04 21:22 22.07766 -81.34499 10311 ft 290 kts 202°
2026-05-04 21:22 22.05864 -81.35250 10083 ft 290 kts 202°
2026-05-04 21:23 22.03970 -81.35996 9842 ft 287 kts 202°
2026-05-04 21:23 22.02143 -81.36714 9568 ft 273 kts 202°
2026-05-04 21:23 22.00401 -81.37399 9290 ft 259 kts 202°
2026-05-04 21:23 21.98741 -81.38052 9037 ft 251 kts 202°
2026-05-04 21:24 21.97116 -81.38693 8784 ft 247 kts 202°
2026-05-04 21:24 21.95504 -81.39328 8544 ft 247 kts 202°
2026-05-04 21:24 21.93894 -81.39961 8301 ft 246 kts 202°
2026-05-04 21:24 21.92286 -81.40593 8060 ft 246 kts 202°
2026-05-04 21:25 21.90650 -81.41110 7803 ft 248 kts 186°
2026-05-04 21:25 21.88930 -81.40884 7541 ft 252 kts 168°
2026-05-04 21:25 21.87229 -81.40395 7260 ft 253 kts 167°
2026-05-04 21:25 21.85532 -81.39879 6982 ft 254 kts 166°
2026-05-04 21:26 21.83850 -81.39366 6694 ft 249 kts 166°
2026-05-04 21:26 21.82204 -81.38869 6407 ft 242 kts 166°
2026-05-04 21:26 21.80605 -81.38390 6107 ft 235 kts 167°
2026-05-04 21:26 21.79049 -81.37928 5799 ft 229 kts 167°
2026-05-04 21:27 21.77532 -81.37479 5508 ft 223 kts 167°
2026-05-04 21:27 21.76076 -81.37050 5235 ft 216 kts 167°
2026-05-04 21:27 21.74652 -81.36630 4972 ft 208 kts 167°
2026-05-04 21:27 21.73286 -81.36228 4695 ft 199 kts 167°
2026-05-04 21:28 21.71972 -81.35842 4388 ft 194 kts 168°
2026-05-04 21:28 21.70684 -81.35465 4096 ft 190 kts 167°
2026-05-04 21:28 21.69420 -81.35095 3799 ft 187 kts 168°
2026-05-04 21:28 21.68173 -81.34730 3503 ft 184 kts 167°
2026-05-04 21:29 21.66960 -81.34374 3262 ft 178 kts 168°
2026-05-04 21:29 21.65781 -81.34029 3002 ft 173 kts 168°
2026-05-04 21:29 21.64640 -81.33694 2779 ft 166 kts 168°
2026-05-04 21:29 21.63523 -81.33373 2549 ft 166 kts 172°
2026-05-04 21:30 21.62430 -81.33548 2296 ft 160 kts 208°
2026-05-04 21:30 21.61426 -81.34082 2062 ft 163 kts 207°
2026-05-04 21:30 21.60419 -81.34606 1817 ft 158 kts 207°
2026-05-04 21:30 21.59443 -81.35115 1581 ft 153 kts 207°
2026-05-04 21:31 21.57670 -81.36040 1503 ft 136 kts 207°
2026-05-04 21:31 21.56788 -81.36502 1507 ft 143 kts 206°
2026-05-04 21:31 21.55894 -81.36970 1497 ft 142 kts 206°
2026-05-04 21:32 21.55011 -81.37436 1490 ft 141 kts 209°
2026-05-04 21:32 21.54424 -81.38225 1497 ft 138 kts 258°
2026-05-04 21:32 21.54695 -81.39205 1536 ft 146 kts 302°
2026-05-04 21:32 21.55127 -81.40199 1504 ft 146 kts 288°
2026-05-04 21:33 21.55535 -81.41192 1486 ft 144 kts 294°
2026-05-04 21:33 21.55969 -81.42152 1503 ft 142 kts 294°
2026-05-04 21:33 21.56403 -81.43108 1494 ft 142 kts 294°
2026-05-04 21:33 21.56837 -81.44061 1489 ft 143 kts 295°
2026-05-04 21:34 21.57276 -81.45022 1510 ft 143 kts 294°
2026-05-04 21:34 21.57715 -81.45987 1486 ft 144 kts 294°
2026-05-04 21:34 21.58164 -81.46967 1344 ft 147 kts 294°
2026-05-04 21:34 21.58602 -81.47930 1134 ft 138 kts 294°
2026-05-04 21:35 21.59008 -81.48819 959 ft 129 kts 294°
2026-05-04 21:35 21.59404 -81.49688 819 ft 127 kts 294°
2026-05-04 21:35 21.59784 -81.50519 644 ft 122 kts 294°
2026-05-04 21:35 21.60154 -81.51337 482 ft 121 kts 293°
2026-05-04 21:36 21.60526 -81.52158 295 ft 124 kts 296°
2026-05-04 21:36 21.60912 -81.52987 121 ft 125 kts 293°
2026-05-04 21:36 21.61279 -81.53814 24 ft 116 kts 293°
2026-05-04 21:36 21.61598 -81.54504 24 ft 80 kts 297°
2026-05-04 21:37 21.61769 -81.54880 23 ft 41 kts 296°
2026-05-04 21:37 21.61882 -81.55123 20 ft 30 kts 296°
2026-05-04 21:37 21.61976 -81.55254 18 ft 19 kts 343°
2026-05-04 21:37 21.62055 -81.55278 17 ft 9 kts 344°
2026-05-04 21:38 21.62115 -81.55295 17 ft 9 kts 353°
2026-05-04 21:38 21.62173 -81.55294 20 ft 7 kts
2026-05-04 21:38 21.62195 -81.55292 21 ft 1 kts
2026-05-04 21:38 21.62196 -81.55292 21 ft 0 kts